Weather in Kazach'ya Sloboda

Russia / Ryazan Oblast     54°00′42″N   41°41′44″E
temp.,
°C
wind,
m/s
gust,
m/s
humid.,
%
clouds,
%
prec.,
mm/h
press.,
hPa
HPBL,
m
25 february, thu
thu2500:00−18ssw5995100 0.3 1034324
03:00−16ssw61094100 0.4 1031403
06:00−14ssw61195100 1.0 1027414
09:00−12ssw71294100 2.5 1023427
12:00−8ssw81494100 1.6 1019473
15:00−2ssw61197100 4.3 1015411
18:00+2wnw51199100 0.9 1013327
21:00+2wnw51199100 0.9 1014291
26 february, fri
fri2600:00+1wnw5998100 0.0 1013276
03:00+1w4997100 0.0 1014294
06:00+1wsw4899100 0.1 1012215
09:00+1wsw510100100 0.4 1012275
12:00+2w513100100 0.6 1009302
15:00+2wsw61499100 0.8 1007426
18:00+2wsw715100100 0.7 1004433
21:00+2wnw71696100 1.2 1004670
27 february, sat
sat2700:00+2w71593100 0.1 1003748
03:00+1w7149297 0.1 1003788
06:000w61392100 0.0 1002670
09:000w71293100 0.1 1002638
12:000w71210091 0.0 1001771
15:00+1w7139396 0.2 1001732
18:00−4nnw7129098 0.8 1003737
21:00−7nnw599299 1.0 1006695
28 february, sun
sun2800:00−9nnw4109297 0.1 1008408
03:00−11nnw499468 0.1 1011266
06:00−12nnw499589 0.0 1012266
09:00−12nnw479275 0.0 1014409
12:00−9nnw479092 0.0 1015496
15:00−7nnw478996 0.1 1016619
18:00−8nnw4893100 0.1 1018530
21:00−9nnw3793100 0.1 1020227
1 march, mon
mon100:00−11nnw359698 0.1 1022166
03:00−12nnw369686 0.1 1024152
06:00−13nnw369638 0.0 1025138
09:00−11n389449 0.0 1026272
12:00−8nnw249084 0.0 1027336
15:00−5wnw359091 0.1 1027523
18:00−5w3791100 0.1 1026266
21:00−7wsw489398 0.1 1025189